When you browse on this site, cookies collect data to enhance your experience and personalize the content and advertising you see.
Visit our Privacy Policy to learn more. By continuing to use the site, you agree to this use of cookies and data.
  • In Hungary
  • List of Countries
  • For 7 days
  • Water Temperature
  • Weather Map
  • News
  • Weather Widgets
  • user-avatar
    Login

    Hourly Weather Ahlebinovka

    Today, 22 October, Tuesday

    Time Temperature Precipitation Wind Pressure Humidity
    00:00 +11°C° 0 mm 6 mps 748 mmHg 82%
    01:00 +11°C° 0 mm 6 mps 748 mmHg 84%
    02:00 +12°C° 0 mm 5 mps 748 mmHg 86%
    03:00 +10°C° 0 mm 5 mps 748 mmHg 88%
    04:00 +11°C° 0.2 mm 4 mps 748 mmHg 89%
    05:00 +11°C° 0.2 mm 4 mps 748 mmHg 90%
    06:00 +11°C° 0.2 mm 3 mps 748 mmHg 92%
    07:00 +11°C° 0.1 mm 3 mps 748 mmHg 91%
    08:00 +11°C° 0.1 mm 3 mps 749 mmHg 90%
    09:00 +12°C° 0.1 mm 3 mps 749 mmHg 90%
    10:00 +12°C° 0 mm 3 mps 749 mmHg 82%
    11:00 +14°C° 0 mm 2 mps 749 mmHg 74%
    12:00 +15°C° 0 mm 2 mps 749 mmHg 66%
    13:00 +15°C° 0 mm 2 mps 750 mmHg 65%
    14:00 +15°C° 0 mm 2 mps 750 mmHg 64%
    15:00 +15°C° 0 mm 2 mps 750 mmHg 63%
    16:00 +14°C° 0 mm 2 mps 750 mmHg 68%
    17:00 +13°C° 0 mm 2 mps 750 mmHg 73%
    18:00 +11°C° 0 mm 1 mps 750 mmHg 78%
    19:00 +11°C° 0 mm 1 mps 750 mmHg 81%
    20:00 +10°C° 0 mm 1 mps 750 mmHg 83%
    21:00 +9°C° 0 mm 0 mps 750 mmHg 86%
    22:00 +10°C° 0 mm 1 mps 750 mmHg 87%
    23:00 +9°C° 0 mm 1 mps 750 mmHg 88%

    Tomorrow, 23 October, Wednesday

    Time Temperature Precipitation Wind Pressure Humidity
    00:00 +9°C° 0 mm 1 mps 750 mmHg 89%
    01:00 +9°C° 0 mm 1 mps 750 mmHg 90%
    02:00 +8°C° 0 mm 2 mps 750 mmHg 90%
    03:00 +7°C° 0 mm 2 mps 750 mmHg 91%
    04:00 +7°C° 0 mm 2 mps 749 mmHg 91%
    05:00 +7°C° 0 mm 3 mps 749 mmHg 91%
    06:00 +7°C° 0 mm 3 mps 749 mmHg 92%
    07:00 +7°C° 0 mm 4 mps 749 mmHg 89%
    08:00 +8°C° 0 mm 4 mps 748 mmHg 87%
    09:00 +8°C° 0 mm 5 mps 748 mmHg 85%
    10:00 +9°C° 0 mm 5 mps 748 mmHg 83%
    11:00 +10°C° 0 mm 6 mps 748 mmHg 80%
    12:00 +11°C° 0 mm 6 mps 748 mmHg 78%
    13:00 +13°C° 0.1 mm 6 mps 747 mmHg 79%
    14:00 +13°C° 0.1 mm 6 mps 747 mmHg 80%
    15:00 +13°C° 0.1 mm 5 mps 747 mmHg 82%
    16:00 +13°C° 0.5 mm 5 mps 747 mmHg 85%
    17:00 +12°C° 0.5 mm 4 mps 747 mmHg 89%
    18:00 +12°C° 0.5 mm 4 mps 747 mmHg 93%
    19:00 +12°C° 0.2 mm 4 mps 747 mmHg 93%
    20:00 +12°C° 0.2 mm 4 mps 747 mmHg 93%
    21:00 +12°C° 0.2 mm 3 mps 747 mmHg 93%
    22:00 +12°C° 0 mm 3 mps 747 mmHg 93%
    23:00 +12°C° 0 mm 3 mps 747 mmHg 93%

    Day after tomorrow, 24 October, Thursday

    Time Temperature Precipitation Wind Pressure Humidity
    00:00 +12°C° 0 mm 3 mps 747 mmHg 93%
    01:00 +11°C° 0 mm 3 mps 747 mmHg 94%
    02:00 +12°C° 0 mm 2 mps 747 mmHg 94%
    03:00 +12°C° 0 mm 2 mps 747 mmHg 94%
    04:00 +10°C° 0 mm 2 mps 747 mmHg 94%
    05:00 +10°C° 0 mm 2 mps 747 mmHg 93%
    06:00 +10°C° 0 mm 1 mps 747 mmHg 92%
    07:00 +11°C° 0 mm 1 mps 747 mmHg 89%
    08:00 +11°C° 0 mm 1 mps 748 mmHg 86%
    09:00 +12°C° 0 mm 1 mps 748 mmHg 82%
    10:00 +13°C° 0 mm 1 mps 748 mmHg 77%
    11:00 +14°C° 0 mm 1 mps 748 mmHg 72%
    12:00 +15°C° 0 mm 1 mps 748 mmHg 66%
    13:00 +15°C° 0 mm 1 mps 748 mmHg 66%
    14:00 +15°C° 0 mm 1 mps 748 mmHg 65%
    15:00 +14°C° 0 mm 0 mps 748 mmHg 65%
    16:00 +13°C° 0 mm 0 mps 748 mmHg 69%
    17:00 +12°C° 0 mm 0 mps 748 mmHg 73%
    18:00 +12°C° 0 mm 0 mps 748 mmHg 77%
    19:00 +12°C° 0 mm 1 mps 749 mmHg 78%
    20:00 +12°C° 0 mm 1 mps 749 mmHg 79%
    21:00 +12°C° 0 mm 1 mps 749 mmHg 79%
    22:00 +12°C° 0 mm 1 mps 749 mmHg 79%
    23:00 +12°C° 0 mm 1 mps 749 mmHg 79%

    25 October, Friday

    Time Temperature Precipitation Wind Pressure Humidity
    00:00 +12°C° 0 mm 1 mps 749 mmHg 79%
    01:00 +12°C° 0 mm 1 mps 749 mmHg 79%
    02:00 +12°C° 0 mm 1 mps 749 mmHg 80%
    03:00 +12°C° 0 mm 1 mps 749 mmHg 80%
    04:00 +12°C° 0 mm 1 mps 749 mmHg 80%
    05:00 +11°C° 0 mm 0 mps 749 mmHg 81%
    06:00 +11°C° 0 mm 0 mps 749 mmHg 81%
    07:00 +12°C° 0 mm 1 mps 750 mmHg 80%
    08:00 +12°C° 0 mm 1 mps 750 mmHg 80%
    09:00 +12°C° 0 mm 1 mps 750 mmHg 79%
    10:00 +13°C° 0 mm 1 mps 750 mmHg 76%
    11:00 +14°C° 0 mm 1 mps 750 mmHg 74%
    12:00 +14°C° 0 mm 1 mps 750 mmHg 71%
    13:00 +15°C° 0 mm 1 mps 750 mmHg 71%
    14:00 +15°C° 0 mm 1 mps 750 mmHg 71%
    15:00 +15°C° 0 mm 1 mps 750 mmHg 71%
    16:00 +15°C° 0 mm 1 mps 750 mmHg 75%
    17:00 +14°C° 0 mm 1 mps 750 mmHg 79%
    18:00 +12°C° 0 mm 0 mps 750 mmHg 83%
    19:00 +12°C° 0 mm 0 mps 751 mmHg 85%
    20:00 +11°C° 0 mm 0 mps 751 mmHg 87%
    21:00 +11°C° 0 mm 0 mps 751 mmHg 89%
    22:00 +10°C° 0 mm 0 mps 751 mmHg 90%
    23:00 +11°C° 0 mm 1 mps 751 mmHg 92%

    26 October, Saturday

    Time Temperature Precipitation Wind Pressure Humidity
    00:00 +11°C° 0 mm 1 mps 751 mmHg 93%
    01:00 +10°C° 0 mm 2 mps 751 mmHg 94%
    02:00 +10°C° 0 mm 2 mps 751 mmHg 94%
    03:00 +9°C° 0 mm 2 mps 751 mmHg 95%
    04:00 +9°C° 0 mm 2 mps 751 mmHg 95%
    05:00 +9°C° 0 mm 2 mps 751 mmHg 95%
    06:00 +9°C° 0 mm 2 mps 751 mmHg 95%
    07:00 +10°C° 0 mm 2 mps 751 mmHg 93%
    08:00 +10°C° 0 mm 3 mps 751 mmHg 90%
    09:00 +11°C° 0 mm 3 mps 751 mmHg 87%
    10:00 +12°C° 0 mm 3 mps 751 mmHg 81%
    11:00 +14°C° 0 mm 4 mps 751 mmHg 74%
    12:00 +15°C° 0 mm 4 mps 751 mmHg 68%
    13:00 +15°C° 0 mm 5 mps 750 mmHg 64%
    14:00 +15°C° 0 mm 5 mps 750 mmHg 60%
    15:00 +15°C° 0 mm 5 mps 749 mmHg 55%
    16:00 +14°C° 0 mm 5 mps 749 mmHg 59%
    17:00 +13°C° 0 mm 4 mps 749 mmHg 62%
    18:00 +12°C° 0 mm 4 mps 749 mmHg 65%
    19:00 +12°C° 0 mm 4 mps 749 mmHg 65%
    20:00 +10°C° 0 mm 5 mps 749 mmHg 65%
    21:00 +10°C° 0 mm 5 mps 749 mmHg 65%
    22:00 +10°C° 0 mm 5 mps 749 mmHg 65%
    23:00 +9°C° 0 mm 5 mps 748 mmHg 64%

    27 October, Sunday

    Time Temperature Precipitation Wind Pressure Humidity
    00:00 +9°C° 0 mm 5 mps 748 mmHg 63%
    01:00 +9°C° 0 mm 5 mps 748 mmHg 64%
    02:00 +9°C° 0 mm 5 mps 748 mmHg 65%
    03:00 +8°C° 0 mm 6 mps 747 mmHg 65%
    04:00 +8°C° 0 mm 6 mps 747 mmHg 66%
    05:00 +8°C° 0 mm 6 mps 747 mmHg 66%
    06:00 +8°C° 0 mm 6 mps 747 mmHg 66%
    07:00 +8°C° 0 mm 6 mps 746 mmHg 64%
    08:00 +9°C° 0 mm 7 mps 746 mmHg 63%
    09:00 +10°C° 0 mm 7 mps 746 mmHg 61%
    10:00 +11°C° 0 mm 8 mps 746 mmHg 56%
    11:00 +12°C° 0 mm 8 mps 746 mmHg 52%
    12:00 +15°C° 0 mm 9 mps 745 mmHg 48%
    13:00 +15°C° 0 mm 8 mps 745 mmHg 48%
    14:00 +15°C° 0 mm 8 mps 744 mmHg 48%
    15:00 +15°C° 0 mm 8 mps 743 mmHg 49%
    16:00 +14°C° 0 mm 7 mps 743 mmHg 53%
    17:00 +14°C° 0 mm 7 mps 743 mmHg 57%
    18:00 +12°C° 0 mm 7 mps 742 mmHg 61%
    19:00 +12°C° 0 mm 7 mps 742 mmHg 63%
    20:00 +11°C° 0 mm 7 mps 742 mmHg 66%
    21:00 +11°C° 0 mm 7 mps 741 mmHg 68%
    22:00 +11°C° 0 mm 7 mps 741 mmHg 69%
    23:00 +11°C° 0 mm 8 mps 740 mmHg 70%

    28 October, Monday

    Time Temperature Precipitation Wind Pressure Humidity
    00:00 +11°C° 0 mm 8 mps 740 mmHg 71%
    01:00 +11°C° 0 mm 8 mps 739 mmHg 71%
    02:00 +10°C° 0 mm 8 mps 739 mmHg 71%
    03:00 +10°C° 0 mm 8 mps 738 mmHg 71%
    04:00 +10°C° 0.5 mm 8 mps 738 mmHg 75%
    05:00 +10°C° 0.5 mm 7 mps 738 mmHg 78%
    06:00 +9°C° 0.5 mm 7 mps 738 mmHg 82%
    07:00 +9°C° 0.6 mm 7 mps 738 mmHg 83%
    08:00 +8°C° 0.6 mm 6 mps 739 mmHg 84%
    09:00 +8°C° 0.6 mm 5 mps 739 mmHg 84%
    10:00 +8°C° 0 mm 5 mps 739 mmHg 78%
    11:00 +8°C° 0 mm 4 mps 740 mmHg 72%
    12:00 +9°C° 0 mm 3 mps 740 mmHg 66%
    13:00 +9°C° 0 mm 3 mps 740 mmHg 64%
    14:00 +9°C° 0 mm 3 mps 740 mmHg 61%
    15:00 +10°C° 0 mm 3 mps 740 mmHg 59%
    16:00 +9°C° 0 mm 3 mps 740 mmHg 64%
    17:00 +8°C° 0 mm 2 mps 740 mmHg 69%
    18:00 +7°C° 0 mm 2 mps 740 mmHg 74%
    19:00 +7°C° 0 mm 2 mps 740 mmHg 75%
    20:00 +5°C° 0 mm 3 mps 740 mmHg 76%
    21:00 +5°C° 0 mm 3 mps 740 mmHg 77%
    22:00 +5°C° 0 mm 3 mps 740 mmHg 77%
    23:00 +5°C° 0 mm 3 mps 740 mmHg 77%
    Show more